Location: Unspecified
(0.0000°N, 0.0000°E)
Time: 13:56:25
(UTC+00:00)

Envisat - Pass Details

Date: 20 May 2019
Orbit: 764 x 766 km, 98.1° (Epoch: 24 August)

Event Time Altitude Azimuth Distance (km) Brightness Sun altitude
Rises 18:35:37 0° 159° (SSE) 3,227 5.8 -9.2°
Reaches altitude 10° 18:37:58 10° 155° (SSE) 2,299 5.1 -9.7°
Maximum altitude 18:42:54 53° 78° (ENE) 928 3.1 -10.9°
Drops below altitude 10° 18:47:49 10° 2° (N) 2,289 5.7 -12.0°
Sets 18:50:09 0° 357° (N) 3,212 6.6 -12.6°
